Regional Weather Roundup
Issued by NWS

Home | Current Version | Previous Version | Text Only | Print | Product List | Glossary On
Versions: 1 2 3 4 5 6 7 8 9 10 11 12 13 14 15 16 17 18 19 20 21 22 23 24 25 26 27 28 29 30 31 32 33 34 35 36 37 38 39 40 41 42 43 44 45 46 47 48 49 50
000
ASUS43 KMPX 261010
RWRMN
WEATHER ROUNDUP FOR MINNESOTA
NATIONAL WEATHER SERVICE TWIN CITIES/CHANHASSEN MN
400 AM CST MON JAN 26 2015


NOTE: "FAIR" INDICATES FEW OR NO CLOUDS BELOW 12,000 FEET WITH NO
SIGNIFICANT WEATHER AND/OR OBSTRUCTIONS TO VISIBILITY. N/A MEANS
CURRENT SKY AND/OR WEATHER CONDITIONS ARE NOT AVAILABLE.

MNZ060>063-068>070-261100-
   Twin Cities Metro

CITY           SKY/WX    TMP DP  RH WIND       PRES   REMARKS
TWIN CITIES    CLOUDY    25  20  81 S9        29.80F WCI  15
ST PAUL        CLOUDY    25  20  81 S9        29.83F WCI  15
CRYSTAL        CLOUDY    26  21  81 S10       29.77F WCI  16
BLAINE         CLOUDY    27  21  80 S9        29.77F WCI  17
LAKEVILLE      CLOUDY    25  21  86 S7        29.80F WCI  17
EDEN PRAIRIE   CLOUDY    27  22  81 S10       29.78F WCI  17
SOUTH ST PAUL  CLOUDY    26  21  82 S6        29.82F WCI  19
LAKE ELMO      CLOUDY    23  21  93 S9        29.81F WCI  13
$$
MNZ001>005-007-008-013>017-022>024-027-028-261100-
   Northwest Minnesota

CITY           SKY/WX    TMP DP  RH WIND       PRES   REMARKS
BEMIDJI        CLOUDY    28  24  86 SW7       29.59F WCI  21
HALLOCK        CLOUDY    27  25  93 W5        29.58R WCI  21
ROSEAU         CLOUDY    30  27  86 SW9       29.55S WCI  22
WARROAD        CLOUDY    28  25  86 SW10      29.54F WCI  19
THIEF RVR FALL MOCLDY    28  27  93 SW9       29.60S WCI  20
CROOKSTON      CLEAR     28  27  93 W8        29.62F WCI  20
FOSSTON        CLOUDY    28  27  93 SW14      29.62S WCI  17
DETROIT LAKES  MOCLDY    32  30  93 W10       29.64F WCI  24
MOORHEAD       CLEAR     28  28 100 SW5       29.66F WCI  23
PARK RAPIDS    CLOUDY    28  24  85 SW10      29.62F WCI  19
MAHNOMEN       FAIR      28  26  92 SW10      29.62S WCI  19
$$
MNZ006-009>011-018-025>026-261100-
   North Central Minnesota

CITY           SKY/WX    TMP DP  RH WIND       PRES   REMARKS
BAUDETTE       CLOUDY    27  21  78 S8        29.54F WCI  19
FLAG ISLAND    CLOUDY    25  23  93 SE5       29.52F WCI  19
INTL FALLS     LGT SNOW  22  19  89 VRB6      29.58F FOG     WCI  14
WASKISH        CLOUDY    28  23  80 S7        29.57F WCI  21
BIG FORK       CLOUDY    25  19  80 S10       29.61S WCI  15
LONGVILLE      CLOUDY    27  21  80 S8        29.63F WCI  18
GRAND RAPIDS   CLOUDY    21  19  93 S12       29.63F WCI   9
CRANE LAKE     LGT SNOW  19  18  93 S7        29.65F WCI  10
ORR            MIX PCPN  19  16  86 S10G16    29.60F WCI   8
COOK           LGT SNOW  19  18  93 S7        29.64F WCI  10
WALKER         CLOUDY    27  23  84 SW9       29.61F WCI  18
$$
MNZ012-019>021-037-261100-
   Northeast Minnesota

CITY           SKY/WX    TMP DP  RH WIND       PRES   REMARKS
DULUTH         SNOW      19  15  84 S9        29.70F VSB 1/2 WCI   8
ELY            LGT SNOW  18  16  93 S9        29.66F WCI   6
HIBBING        FLURRIES  22  17  81 S8        29.65F WCI  12
EVELETH        LGT SNOW  21  18  86 SE9       29.66F WCI  11
DULUTH HARBOR  LGT SNOW  21  18  86 S6        29.80F WCI  14
TWO HARBORS    SNOW      21  18  86 S6        29.74F VSB 1/2 WCI  14
SILVER BAY     LGT SNOW  19  18  93 CALM      29.74F
GRAND MARAIS     N/A     25  21  85 SW18      29.80F WCI  11
G MARAIS ARPRT LGT SNOW  16  12  86 S8        29.72F WCI   5
$$
MNZ029>031-032-039>041-046>048-054>057-064-261100-
   West Central Minnesota

CITY           SKY/WX    TMP DP  RH WIND       PRES   REMARKS
FERGUS FALLS   MOCLDY    28  27  93 W6        29.71S WCI  22
WHEATON        CLOUDY    32  28  86 SW12      29.71F WCI  23
MORRIS         MOCLDY    34  30  86 SW9       29.69F WCI  26
ALEXANDRIA     CLOUDY    31  29  92 SW23G30   29.65F WCI  18
ELBOW LAKE     FAIR      31  29  94 SW18G24   29.67S WCI  19
WADENA         CLOUDY    27  25  93 SW7       29.66R WCI  19
GLENWOOD       CLOUDY    30  30 100 SW21G32   29.66F WCI  17
APPLETON       MOCLDY    36  32  87 SW13      29.69F
BENSON         CLOUDY    34  30  86 SW17      29.69F WCI  23
ORTONVILLE     CLOUDY    36  30  80 SW10      29.69S
MADISON        CLOUDY    37  36  93 SW12      29.72R
WILLMAR        FAIR      34  30  86 SW16G26   29.71F WCI  23
$$
MNZ033>034-036-042>043-049>051-058-059-261100-
   Central Minnesota

CITY           SKY/WX    TMP DP  RH WIND       PRES   REMARKS
ST CLOUD       CLOUDY    25  23  92 SE5       29.74F WCI  19
SAUK CENTRE    CLOUDY    31  29  93 SW9       29.66F WCI  23
PAYNESVILLE    CLOUDY    29  28  97 S12G17    29.67F WCI  19
AITKIN         CLOUDY    27  21  80 S13       29.64F WCI  16
PINE RIVER     CLOUDY    27  23  86 S9        29.68F WCI  17
BRAINERD       CLOUDY    25  22  88 S8        29.68F WCI  16
STAPLES        CLOUDY    27  25  93 S9        29.65F WCI  17
LONG PRAIRIE   CLOUDY    28  28 100 SE6       29.68F WCI  22
LITTLE FALLS   CLOUDY    28  25  86 S9        29.69F WCI  20
LITCHFIELD     MIX PCPN  30  30 100 SW8       29.70F WCI  23
BUFFALO        CLOUDY    26  24  89 S8        29.73F WCI  18
MAPLE LAKE     CLOUDY    28  27  95 S8        29.72F WCI  20
$$
MNZ037-044-045-052-053-261100-
   East Central Minnesota

CITY           SKY/WX    TMP DP  RH WIND       PRES   REMARKS
PRINCETON      FLURRIES  27  21  80 S7        29.75F WCI  19
MORA           CLOUDY    23  18  80 S6        29.78F WCI  16
CAMBRIDGE      FLURRIES  25  18  74 S8        29.75F WCI  16
RUSH CITY      CLOUDY    22  18  84 S7        29.78F WCI  14
MOOSE LAKE     LGT SNOW  23  19  86 S7        29.72F WCI  15
HINCKLEY       LGT SNOW  23  21  93 S8        29.77F WCI  14
CLOQUET        LGT SNOW  19  18  93 SE7       29.71F WCI  10
MCGREGOR       CLOUDY    25  21  86 S12       29.68F WCI  14
$$
MNZ071>073-080-081-089-090-097-098-261100-
   Southwest Minnesota

CITY           SKY/WX    TMP DP  RH WIND       PRES   REMARKS
MONTEVIDEO     CLOUDY    34  34 100 SW16G23   29.72F WCI  23
GRANITE FALLS  CLOUDY    32  31  95 S16       29.74F WCI  21
CANBY          CLOUDY    36  32  86 SW23G32   29.67F
MARSHALL       CLOUDY    34  30  86 SW25      29.72F WCI  21
REDWOOD FALLS  CLOUDY    33  30  88 S24G30    29.72F WCI  20
OLIVIA         CLOUDY    32  32 100 S18G26    29.71F WCI  20
PIPESTONE      MOCLDY    34  32  93 SW18      29.75F WCI  23
WINDOM         CLOUDY    32  30  93 S9        29.83F WCI  24
WORTHINGTON    CLOUDY    32  28  86 SW16      29.83F WCI  21
JACKSON        CLOUDY    32  30  93 S12       29.85F WCI  23
TRACY          LGT RAIN  34  32  93 S15G23    29.76F WCI  24
SLAYTON        CLOUDY    33  32  96 S17       29.79F WCI  21
$$
MNZ065>067-074>077-082>085-091>093-261100-
   South Central Minnesota

CITY           SKY/WX    TMP DP  RH WIND       PRES   REMARKS
MANKATO        CLOUDY    30  27  86 S14       29.80R WCI  20
NEW ULM        CLOUDY    32  30  93 SW18      29.79F WCI  20
ST JAMES       CLOUDY    34  30  86 S13G18    29.82F WCI  25
FAIRMONT       CLOUDY    30  27  86 SW17      29.82F WCI  18
GLENCOE        CLOUDY    31  30  96 S10       29.76F WCI  22
FARIBAULT      CLOUDY    27  25  93 S9        29.81F WCI  17
OWATONNA       CLOUDY    27  23  86 S10G17    29.82F WCI  17
WASECA         CLOUDY    30  28  93 S16       29.81F WCI  19
ALBERT LEA     CLOUDY    28  27  93 S10       29.83F WCI  19
$$
MNZ078>079-086>088-094>096-261100-
   Southeast Minnesota

CITY           SKY/WX    TMP DP  RH WIND       PRES   REMARKS
ROCHESTER      LGT SNOW  24  20  84 S13       29.86F FOG     WCI  12
RED WING       LGT SNOW  25  21  86 S5        29.86F WCI  19
STANTON        CLOUDY    27  23  82 S10       29.80F WCI  18
DODGE CENTER   FLURRIES  25  23  93 S15       29.84F WCI  12
WINONA         CLOUDY    25  19  80 SE3       29.93F
AUSTIN         CLOUDY    27  23  86 S10       29.85F WCI  17
PRESTON        CLOUDY    24  20  85 SW13      29.88F WCI  12
$$
ABBREVIATIONS USED IN REMARKS
   TC - TEMPERATURES IN CELSIUS
  WCI - WIND CHILL INDEX
   HX - HEAT INDEX
  VSB - VISIBILITY
$$


USA.gov is the U.S. government's official web portal to all federal, state and local government web resources and services.